Погода Великие Луки

Погода Великие Луки : погода сейчас, прогноз погоды и архив. Всё, что Вы хотите узнать о погоде Великие Луки!

Поиск расширенной информации на нашем сайте:

Другие новости

Новости СМИ2

Главная страница сайта

Новости сайта

03.07.2017

Напоминаем, что на нашем специализированном сайте Метеоцентр.Азия вы можете получить высокодетализированные автоматические прогнозы погоды по пунктам России, СНГ и мира в авиационном формате (включающие направление и скорость ветра, видимость, явления погоды, количество и форму облачности, нижнюю и верхнюю границу облачности).


Погода Великие Луки - сегодня

Время (UTC), дата Ветер
(°,м/с) 
Видим.   Явления Облачность Т
(°С)
Тd
(°С)
f(%) Тe
(°С)
Pmin
(гПа)
dP
(гПа)
Po
(мм)
O2
(г/м3)
Тmin Tmax R s Состояние
почвы
21 07.11.18 180 (Ю) 4000 м  дымка{морось}  10/10 300 м 
[St]
+3.5 +3.5 100 +4  1024.4  0.6  758  301           
03 08.11.18 140 (ЮВ) 4000 м  слаб. морось  10/10 300 м 
[St]
+1.9 +1.9 100 +3  1024.2  -0.5  758  303  +1.9    0.0     
09 08.11.18 210 (ЮЗ) 4000 м  слаб. морось  10/10 300 м 
[St]
+3.8 +3.8 100 +5  1024.5  0.1  759  301           
21 08.11.18 тихо ()   4000 м  слаб. морось  10/10 200 м 
[St]
+4 +4 100 +4  1024.2  0.5  758  301           
03 09.11.18 170 (Ю) 4000 м  слаб. морось  10/10 200 м 
[St]
+2.8 +2.8 100 +4  1023.9  -0.2  758  302  +2.8    0.4     
09 09.11.18 160 (Ю) 4000 м  дымка  10/10 200 м 
[Frnb]
+3 +3 100 +2  1024.6  0.5  759  302           
21 09.11.18 150 (ЮВ) 4000 м  слаб. морось  10/10 200 м 
[St]
+2.6 +2.6 100 +3  1023.9  0.2  758  302           
03 10.11.18 150 (ЮВ) 4000 м  дымка  10/10 300 м 
[St]
+2.1 +2.1 100 +1  1023.5  -0.1  758  303  +2.1    0.0     
09 10.11.18 130 (ЮВ) 4000 м  слаб. морось  10/10 300 м 
[St]
+2.9 +3 100 +2  1024.3  0.2  758  302           
21 10.11.18 120 (ЮВ) 4000 м  слаб. морось  10/10 300 м 
[St]
+1.7 +1.4 98 +1  1028.5  1.4  761  305           
03 11.11.18 120 (ЮВ) 10 км  {морось}  10/10 600 м 
[Sc]
+1.6 -0.5 86 1030.8  763  306  +1.4    0.1     
09 11.11.18 150 (ЮВ) 10 км    10/10 600 м кучево-дожд. 
[Cb cap]
+3.2 -0.4 77 +2  1033.5  1.1  765  305           
21 11.11.18 140 (ЮВ) 10 км    10/10 600 м кучево-дожд. 
[Cb cap]
+1.2 -2 79 1035.7  0.6  767  308           
00 12.11.18 150 (ЮВ) 10 км    10/10 600 м кучево-дожд. 
[Cb cap]
+0.5 -3.7 73 -1  1035.8  767  309           
03 12.11.18 150 (ЮВ) 4-10  10 км    10/10 600 м кучево-дожд. 
[Cb cap]
+0.6 -3.2 76 -2  1035.4  -0.3  767  309  +0.5    0.0     
09 12.11.18 160 (Ю) 10 км  {ливн. осадки}  10/10 600 м кучево-дожд. 
[Cb calv]
-0.1 -3.4 78 -2  1035.8  -0.2  767  309           
21 12.11.18 160 (Ю) 4{10}  10 км    10/10 600 м кучево-дожд. 
[Cb cap]
-0.4 -4.6 73 -3  1034.2  -0.6  766  309           
09 13.11.18 170 (Ю) 10 км  {ливн. осадки}  10/10 300 м кучево-дожд. 
[Cb cap]
+0.3 -2 85 -3  1029  -1.4  762  307           
21 13.11.18 180 (Ю) 3{12}  10 км    10/10 600 м кучево-дожд. 
[Cb calv]
+0.8 -1.1 87 -1  1023  -1.1  757  304           
03 14.11.18 170 (Ю) 4000 м  слаб. ливневой снег  10/10 600 м кучево-дожд. 
[Cb calv]
-0.1 -0.1 100 -1  1020.2  -1.2  755  304  -0.1       
09 14.11.18 150 (ЮВ) 4000 м  слаб. снег{ливн. осадки}  10/10 300 м 
[Ns]
-0.2 -0.2 100 1020.1  0.4  755  304           
21 14.11.18 тихо ()   10 км  {снег}  10/10 1500 м 
[Sc]
-3.1 -3.1 100 -3  1025.8  1.9  759  310           
03 15.11.18 тихо ()   10 км    10/10 1500 м 
[Sc]
-5.3 -5.3 100 -5  1029.7  762  314  -5.4       
09 15.11.18 тихо ()   10 км  [диам. гололёда 1 мм]  10/0 верхняя 
[Ci fib]
-0.6 -0.6 100 -1  1033.8  765  309           
12 15.11.18 тихо ()   10 км    9/9 600 м 
[Sc]
-0.2 -1.5 91 -0  1035.8  767  309           
Время (UTC), дата Ветер
(°,м/с) 
Видим.   Явления Облачность Т
(°С)
Тd
(°С)
f(%) Тe
(°С)
Pmin
(гПа)
dP
(гПа)
Po
(мм)
O2
(г/м3)
Тmin Tmax R s Состояние
почвы

Для получения пояснительной информации подведите курсор к названию столбца.

ПОГОДА Великие Луки - архив

Всё, что Вы хотите узнать о погоде Великие Луки - удобно и подробно!

Выберите нужную дату (начиная с 1 января 2015* года) и нажмите кнопку "Найти".
Будут отображены архивные сводки погоды по пункту Великие Луки, начиная с указанной даты.


Отображать данные в формате CSV (для использования в таблицах Excel)


Внимание! Наш архив погоды предназначен исключительно для личного некоммерческого использования в познавательных целях. Если Вам необходимы официальные справки о состоянии погоды (для производственных, юридических, коммерческих и т.п. целей), обращайтесь в органы Росгидромета.

*Примечание: данная дата относится к архиву по метеостанциям СССР (Россия, СНГ, Балтия).
Архив по метеостанциям Зарубежной Европы и Азии (кроме Китая) хранится 10 дней, по другим регионам земного шара (Китай, Африка, Америка, Австралия, Океания) - 1 день.

Великие Луки - район местоположения метеостанции


Название, широта, долгота, высота метеостанции:
Великие Луки 56.3°ш. 30.6°д. 99 м над ур. моря [Российская Федерация]

Дополнительная информация

В oтличие oт бoльшинства пoгoдных сайтoв мы публикуем пoдрoбную метеoинфoрмацию в детальнoм прoфессиoнальнoм фoрмате.

Характеристики температуры и влажнoсти вoздуха измеряются на высoте 2 м в тени вдали oт зданий и деревьев.
Скoрoсть ветра измеряется на высoте 10 м (на урoвне рoста челoвека скoрoсть ветра ниже в 1.5-2 раза). Если метеoстанция нахoдится в гoрoде или в лесу, тo скoрoсть ветра занижена на 2-4 м/с пo сравнению с oткрытым местoм. Скoрoсть ветра над акватoриями крупных рек и oзёр, а также на вершинах хoлмoв на 2-5 м/с выше, чем в oбычных услoвиях.
Атмoсфернoе давление в разных тoчках местнoсти мoжет значительнo oтличаться oт давления на метеoстанции, в зависимoсти oт услoвий рельефа (при пoдъёме на 10 м давление пoнижается примернo на 1 мм рт.ст.).